• In United Kingdom
  • List of Countries
  • For 7 days
  • Water Temperature
  • Satellite Maps
  • Weather Map
  • Weather Widgets
  • user-avatar
    Login

    Hourly Weather Zgurovka

    Today, 22 August, Wednesday

    Time Temperature Precipitation Wind Pressure Humidity
    00:00 +18°C° 0 mm 3 mps 750 mmHg 82%
    01:00 +17°C° 0 mm 3 mps 750 mmHg 83%
    02:00 +17°C° 0 mm 3 mps 751 mmHg 85%
    03:00 +16°C° 0 mm 3 mps 751 mmHg 86%
    04:00 +16°C° 0 mm 3 mps 751 mmHg 87%
    05:00 +14°C° 0 mm 3 mps 751 mmHg 89%
    06:00 +17°C° 0 mm 3 mps 752 mmHg 83%
    07:00 +18°C° 0 mm 3 mps 752 mmHg 77%
    08:00 +19°C° 0 mm 3 mps 752 mmHg 71%
    09:00 +20°C° 0 mm 3 mps 753 mmHg 64%
    10:00 +22°C° 0 mm 4 mps 753 mmHg 57%
    11:00 +23°C° 0 mm 4 mps 753 mmHg 50%
    12:00 +23°C° 0 mm 4 mps 753 mmHg 48%
    13:00 +25°C° 0 mm 4 mps 753 mmHg 46%
    14:00 +25°C° 0 mm 4 mps 753 mmHg 44%
    15:00 +25°C° 0 mm 4 mps 753 mmHg 46%
    16:00 +23°C° 0 mm 4 mps 753 mmHg 48%
    17:00 +24°C° 0 mm 3 mps 753 mmHg 50%
    18:00 +21°C° 0 mm 3 mps 754 mmHg 54%
    19:00 +19°C° 0 mm 3 mps 754 mmHg 58%
    20:00 +17°C° 0 mm 3 mps 754 mmHg 62%
    21:00 +17°C° 0 mm 3 mps 754 mmHg 63%
    22:00 +16°C° 0 mm 3 mps 755 mmHg 64%
    23:00 +14°C° 0 mm 3 mps 755 mmHg 65%

    Tomorrow, 23 August, Thursday

    Time Temperature Precipitation Wind Pressure Humidity
    00:00 +15°C° 0 mm 2 mps 755 mmHg 67%
    01:00 +14°C° 0 mm 2 mps 755 mmHg 69%
    02:00 +14°C° 0 mm 2 mps 755 mmHg 71%
    03:00 +13°C° 0 mm 2 mps 755 mmHg 72%
    04:00 +13°C° 0 mm 2 mps 755 mmHg 73%
    05:00 +12°C° 0 mm 2 mps 756 mmHg 75%
    06:00 +14°C° 0 mm 2 mps 756 mmHg 70%
    07:00 +16°C° 0 mm 2 mps 756 mmHg 66%
    08:00 +17°C° 0 mm 2 mps 756 mmHg 61%
    09:00 +19°C° 0 mm 2 mps 756 mmHg 56%
    10:00 +21°C° 0 mm 1 mps 756 mmHg 50%
    11:00 +23°C° 0 mm 1 mps 756 mmHg 45%
    12:00 +23°C° 0 mm 1 mps 755 mmHg 42%
    13:00 +24°C° 0 mm 1 mps 755 mmHg 40%
    14:00 +25°C° 0 mm 1 mps 755 mmHg 37%
    15:00 +25°C° 0 mm 1 mps 754 mmHg 39%
    16:00 +24°C° 0 mm 1 mps 754 mmHg 41%
    17:00 +24°C° 0 mm 1 mps 754 mmHg 42%
    18:00 +22°C° 0 mm 1 mps 754 mmHg 46%
    19:00 +20°C° 0 mm 1 mps 754 mmHg 49%
    20:00 +18°C° 0 mm 2 mps 754 mmHg 52%
    21:00 +17°C° 0 mm 2 mps 754 mmHg 53%
    22:00 +16°C° 0 mm 2 mps 754 mmHg 54%
    23:00 +16°C° 0 mm 2 mps 754 mmHg 55%

    Day after tomorrow, 24 August, Friday

    Time Temperature Precipitation Wind Pressure Humidity
    00:00 +15°C° 0 mm 2 mps 754 mmHg 57%
    01:00 +15°C° 0 mm 2 mps 754 mmHg 58%
    02:00 +15°C° 0 mm 2 mps 753 mmHg 60%
    03:00 +14°C° 0 mm 2 mps 753 mmHg 61%
    04:00 +13°C° 0 mm 3 mps 753 mmHg 62%
    05:00 +13°C° 0 mm 3 mps 753 mmHg 63%
    06:00 +14°C° 0 mm 3 mps 753 mmHg 60%
    07:00 +17°C° 0 mm 3 mps 753 mmHg 58%
    08:00 +19°C° 0 mm 3 mps 753 mmHg 55%
    09:00 +20°C° 0 mm 3 mps 753 mmHg 50%
    10:00 +22°C° 0 mm 3 mps 753 mmHg 45%
    11:00 +25°C° 0 mm 4 mps 752 mmHg 40%
    12:00 +26°C° 0 mm 3 mps 752 mmHg 38%
    13:00 +26°C° 0 mm 3 mps 752 mmHg 37%
    14:00 +27°C° 0 mm 3 mps 751 mmHg 35%
    15:00 +27°C° 0 mm 3 mps 751 mmHg 38%
    16:00 +26°C° 0 mm 3 mps 751 mmHg 40%
    17:00 +26°C° 0 mm 2 mps 750 mmHg 43%
    18:00 +24°C° 0 mm 2 mps 750 mmHg 46%
    19:00 +21°C° 0 mm 2 mps 750 mmHg 49%
    20:00 +19°C° 0 mm 2 mps 750 mmHg 51%
    21:00 +18°C° 0 mm 3 mps 750 mmHg 52%
    22:00 +18°C° 0 mm 3 mps 750 mmHg 54%
    23:00 +17°C° 0 mm 3 mps 750 mmHg 55%

    25 August, Saturday

    Time Temperature Precipitation Wind Pressure Humidity
    00:00 +17°C° 0 mm 3 mps 750 mmHg 55%
    01:00 +16°C° 0 mm 3 mps 750 mmHg 56%
    02:00 +16°C° 0 mm 3 mps 749 mmHg 56%
    03:00 +14°C° 0 mm 3 mps 749 mmHg 57%
    04:00 +14°C° 0 mm 3 mps 749 mmHg 57%
    05:00 +14°C° 0 mm 3 mps 749 mmHg 58%
    06:00 +16°C° 0 mm 3 mps 749 mmHg 56%
    07:00 +18°C° 0 mm 4 mps 749 mmHg 53%
    08:00 +20°C° 0 mm 4 mps 749 mmHg 51%
    09:00 +22°C° 0 mm 4 mps 749 mmHg 47%
    10:00 +25°C° 0 mm 5 mps 749 mmHg 43%
    11:00 +27°C° 0 mm 5 mps 749 mmHg 38%
    12:00 +28°C° 0 mm 5 mps 749 mmHg 36%
    13:00 +28°C° 0 mm 4 mps 748 mmHg 34%
    14:00 +29°C° 0 mm 4 mps 748 mmHg 32%
    15:00 +28°C° 0 mm 4 mps 748 mmHg 35%
    16:00 +28°C° 0 mm 3 mps 748 mmHg 38%
    17:00 +28°C° 0 mm 3 mps 748 mmHg 41%
    18:00 +25°C° 0 mm 3 mps 748 mmHg 43%
    19:00 +22°C° 0 mm 3 mps 748 mmHg 45%
    20:00 +20°C° 0 mm 3 mps 748 mmHg 47%
    21:00 +20°C° 0 mm 3 mps 748 mmHg 47%
    22:00 +19°C° 0 mm 3 mps 748 mmHg 48%
    23:00 +18°C° 0 mm 3 mps 747 mmHg 49%

    26 August, Sunday

    Time Temperature Precipitation Wind Pressure Humidity
    00:00 +18°C° 0 mm 3 mps 747 mmHg 49%
    01:00 +18°C° 0 mm 3 mps 747 mmHg 49%
    02:00 +17°C° 0 mm 3 mps 747 mmHg 49%
    03:00 +17°C° 0 mm 3 mps 747 mmHg 49%
    04:00 +16°C° 0 mm 3 mps 747 mmHg 49%
    05:00 +16°C° 0 mm 3 mps 747 mmHg 49%
    06:00 +18°C° 0 mm 3 mps 747 mmHg 49%
    07:00 +19°C° 0 mm 3 mps 747 mmHg 49%
    08:00 +21°C° 0 mm 3 mps 747 mmHg 48%
    09:00 +24°C° 0 mm 3 mps 747 mmHg 45%
    10:00 +26°C° 0 mm 3 mps 747 mmHg 42%
    11:00 +28°C° 0 mm 3 mps 747 mmHg 38%
    12:00 +29°C° 0 mm 3 mps 747 mmHg 36%
    13:00 +30°C° 0 mm 3 mps 747 mmHg 33%
    14:00 +30°C° 0 mm 3 mps 746 mmHg 31%
    15:00 +30°C° 0 mm 3 mps 746 mmHg 34%
    16:00 +29°C° 0 mm 3 mps 746 mmHg 37%
    17:00 +28°C° 0 mm 3 mps 746 mmHg 40%
    18:00 +26°C° 0 mm 3 mps 746 mmHg 42%
    19:00 +24°C° 0 mm 3 mps 746 mmHg 45%
    20:00 +21°C° 0 mm 3 mps 746 mmHg 47%
    21:00 +21°C° 0 mm 3 mps 746 mmHg 49%
    22:00 +20°C° 0 mm 3 mps 746 mmHg 51%
    23:00 +19°C° 0 mm 3 mps 746 mmHg 53%

    27 August, Monday

    Time Temperature Precipitation Wind Pressure Humidity
    00:00 +19°C° 0 mm 3 mps 746 mmHg 54%
    01:00 +19°C° 0 mm 3 mps 746 mmHg 56%
    02:00 +18°C° 0 mm 3 mps 746 mmHg 57%
    03:00 +18°C° 0 mm 3 mps 746 mmHg 57%
    04:00 +18°C° 0 mm 3 mps 746 mmHg 57%
    05:00 +17°C° 0 mm 2 mps 746 mmHg 57%
    06:00 +19°C° 0 mm 2 mps 746 mmHg 55%
    07:00 +21°C° 0 mm 3 mps 747 mmHg 53%
    08:00 +22°C° 0 mm 3 mps 747 mmHg 51%
    09:00 +25°C° 0 mm 3 mps 747 mmHg 47%
    10:00 +27°C° 0 mm 3 mps 747 mmHg 43%
    11:00 +29°C° 0 mm 3 mps 747 mmHg 39%
    12:00 +30°C° 0 mm 3 mps 747 mmHg 37%
    13:00 +31°C° 0 mm 3 mps 747 mmHg 34%
    14:00 +33°C° 0 mm 3 mps 747 mmHg 32%
    15:00 +31°C° 0 mm 3 mps 747 mmHg 35%
    16:00 +31°C° 0 mm 2 mps 747 mmHg 38%
    17:00 +30°C° 0 mm 2 mps 747 mmHg 41%
    18:00 +29°C° 0 mm 2 mps 747 mmHg 43%
    19:00 +28°C° 0 mm 3 mps 747 mmHg 44%
    20:00 +26°C° 0 mm 3 mps 747 mmHg 46%
    21:00 +26°C° 0 mm 3 mps 748 mmHg 46%
    22:00 +25°C° 0 mm 3 mps 748 mmHg 45%
    23:00 +25°C° 0 mm 3 mps 748 mmHg 45%
    Show more